Погода в Ряжске

Погода в Ряжске : погода сейчас, прогноз погоды и архив. Всё, что Вы хотите узнать о погоде в Ряжске!

Хотите узнать прогноз погоды в Ряжске? Тогда Вам сюда: Погода в Ряжске

Поиск расширенной информации на нашем сайте:

Другие новости

Новости СМИ2

Главная страница сайта

Новости сайта

02.10.2013

Напоминаем, что на нашем новом сайте вы можете получить высокодетализированные прогнозы погоды по пунктам России, СНГ и мира (включающие важные для авиации метеовеличины, такие как направление и скорость ветра, видимость, явления погоды, количество и форма облачности, нижняя и верхняя граница облачности), а также ознакомиться с разнообразными материалами по авиационной метеорологии и подборкой полезных ссылок на эту тему.

Сайт Метеоцентр.Азия посвящён разработке технологий оптимизации авиаметеорологического обслуживания, включая проектирование и перспективное создание нескольких автоматизированных авиаметеорологических систем:
- система выпуска высокодетальных прогностических карт явлений погоды для нижнего воздушного пространства по России и ближнему зарубежью;
- система верификации прогнозов TAF (выпускаемых синоптиками официальных АМСГ РФ и ближнего зарубежья) и AUTOTAF (выпускаемых сайтом Метеоцентр.Азия) - выявление ошибок, онлайн-сопоставление с фактической погодой METAR, автоматическое внесение коррективов в прогнозы при резком отклонении фактической погоды от прогноза, подсчёт оправдываемости прогнозов по элементам и в целом;
- система обработки, анализа и отображения авиаметеорологической информации для применения провайдерами метеорологической информации.


Погода в Ряжске - сегодня

Время (UTC), дата Ветер
(°,м/с) 
Видим.   Явления Облачность Т
(°С)
Тd
(°С)
f(%) Тe
(°С)
Pmin
(гПа)
dP
(гПа)
Po
(мм)
O2
(г/м3)
Тmin Tmax R s Состояние
почвы
03 21.01.17 260 (З) н/о    10/10 600 м 
[Sc]
-5.9 -8.3 83 -6  1012.4  -1.7  747  309  -8.4      35  равномерный
сухой снег
100% 
06 21.01.17 270 (З) 4000 м  дымка  10/10 600 м 
[Sc]
-4 -5.4 90 -5  1010.4  -1.8  746  306           
09 21.01.17 260 (З) 4000 м  слаб. снег  10/10 300 м 
[Frnb|Ns]
-2.2 -3.3 92 -3  1008.8  -1.5  745  303           
12 21.01.17 320 (СЗ) 10 км  {снег}  10/10 600 м 
[Sc]
-2.2 -4.3 85 -4  1008.5  -0.3  744  303           
15 21.01.17 310 (СЗ) н/о    8/0 средняя 
[Ac trans]
-4.1 -7.8 75 -5  1010.5  1.9  746  306    -1.3  0.5     
18 21.01.17 330 (СЗ) н/о    8/0 средняя 
[Ac trans]
-5 -8 79 -7  1013.1  2.4  748  308           
21 21.01.17 320 (СЗ) н/о  позёмок  6/0 верхняя 
[Ci sp]
-6.4 -9.2 80 -10  1016.1  2.9  750  310           
00 22.01.17 290 (З) н/о  позёмок  6/0 верхняя 
[Ci sp]
-7.5 -10.5 79 -10  1018.4  2.1  751  312           
03 22.01.17 300 (СЗ) 3{10}  н/о    3/0 верхняя 
[Ci sp]
-8.5 -11.2 81 -11  1019.6  1.1  752  314  -8.5      35  равномерный
сухой снег
100% 
06 22.01.17 300 (СЗ) 10 км    6/0 верхняя 
[Ci sp]
-8.6 -11.7 78 -11  1020.1  0.5  753  314  -9.2         
09 22.01.17 290 (З) 5{12}  10 км  позёмок  6/0 верхняя 
[Ci sp]
-5.6 -9.1 76 -10  1019.7  -0.2  752  310           
12 22.01.17 280 (З) 5-10{12}  10 км  позёмок  9/6 600 м верхняя 
[Sc|Ci sp]
-4.4 -8.3 74 -8  1017.3  -2.2  751  308           
15 22.01.17 270 (З) 4{10}  н/о  позёмок  10/0 средняя 
[As op]
-4.4 -7.2 81 -8  1016  -1.3  750  308    -4.2       
18 22.01.17 270 (З) 3{10}  4000 м  слаб. снег  10/0 средняя 
[As op]
-3.2 -4.3 92 -5  1014.2  -1.7  749  306           
21 22.01.17 310 (СЗ) н/о  {снег}  10/10 600 м 
[Sc]
-0.7 -2.9 85 -3  1014.9  0.9  749  303           
00 23.01.17 320 (СЗ) н/о  {снег}  10/10 300 м 
[St]
-0.9 -4 79 -2  1016.2  1.2  750  304           
03 23.01.17 тихо ()   4000 м  слаб. снег  10/10 300 м 
[Frnb|Ns]
-2.4 -3.1 95 -2  1016.9  0.6  751  305  -4.4    35  равномерный
сухой снег
100% 
06 23.01.17 180 (Ю) 1000 м  снег  10/10 100 м 
[Frnb|Ns]
-2 -2.3 98 -1  1016.7  -0.2  750  305           
09 23.01.17 270 (З) 4000 м  дымка{снег}  10/0 средняя 
[As op]
+1.3 -0.3 89 1016.3  -0.2  750  301           
12 23.01.17 250 (З) 10 км  {снег}  10/0 средняя 
[As op]
+1.3 -1.1 84 1015  -1.3  749  301           
15 23.01.17 250 (З) н/о    10/0 средняя 
[Ac As]
+0.6 -1.1 88 -1  1014.1  -0.9  749  301    +1.6     
18 23.01.17 250 (З) 4000 м  дымка  10/10 600 м 
[Sc]
-0.2 -0.8 96 -3  1011.9  -2.2  747  301           
21 23.01.17 260 (З) 4000 м  дымка  10/10 1000 м 
[Sc]
-0.2 -1.8 89 -2  1011.4  -0.5  747  301           
00 24.01.17 270 (З) 3{11}  н/о    10/0 средняя 
[As op]
-0.3 -2.5 85 -2  1010.2  -1.2  746  301           
03 24.01.17 280 (З) н/о    10/0 средняя 
[As op]
-0.8 -3.7 81 -3  1009.2  -1  745  301  -1.1      32  равномерный
мокрый или
старый снег
100% 
Время (UTC), дата Ветер
(°,м/с) 
Видим.   Явления Облачность Т
(°С)
Тd
(°С)
f(%) Тe
(°С)
Pmin
(гПа)
dP
(гПа)
Po
(мм)
O2
(г/м3)
Тmin Tmax R s Состояние
почвы

Для получения пояснительной информации подведите курсор к названию столбца.

ПОГОДА в Ряжске - архив

Всё, что Вы хотите узнать о погоде в Ряжске - удобно и подробно!

Выберите нужную дату (начиная с 1 января 2015* года) и нажмите кнопку "Найти".
Будут отображены архивные сводки погоды по пункту Ряжск, начиная с указанной даты.


Отображать данные в формате CSV (для использования в таблицах Excel)


Внимание! Наш архив погоды предназначен исключительно для личного некоммерческого использования в познавательных целях. Если Вам необходимы официальные справки о состоянии погоды (для производственных, юридических, коммерческих и т.п. целей), обращайтесь в органы Росгидромета.

*Примечание: данная дата относится к архиву по метеостанциям СССР (Россия, СНГ, Балтия).
Архив по метеостанциям Зарубежной Европы и Азии (кроме Китая) хранится 10 дней, по другим регионам земного шара (Китай, Африка, Америка, Австралия, Океания) - 1 день.

Ряжск - район местоположения метеостанции


Название, широта, долгота, высота метеостанции:
Ряжск 53.7°ш. 40.1°д. 127 м над ур. моря [Российская Федерация]

Дополнительная информация

В oтличие oт бoльшинства пoгoдных сайтoв мы публикуем пoдрoбную метеoинфoрмацию в детальнoм прoфессиoнальнoм фoрмате.

Характеристики температуры и влажнoсти вoздуха измеряются на высoте 2 м в тени вдали oт зданий и деревьев.
Скoрoсть ветра измеряется на высoте 10 м (на урoвне рoста челoвека скoрoсть ветра ниже в 1.5-2 раза). Если метеoстанция нахoдится в гoрoде или в лесу, тo скoрoсть ветра занижена на 2-4 м/с пo сравнению с oткрытым местoм. Скoрoсть ветра над акватoриями крупных рек и oзёр, а также на вершинах хoлмoв на 2-5 м/с выше, чем в oбычных услoвиях.
Атмoсфернoе давление в разных тoчках местнoсти мoжет значительнo oтличаться oт давления на метеoстанции, в зависимoсти oт услoвий рельефа (при пoдъёме на 10 м давление пoнижается примернo на 1 мм рт.ст.).